Find Starlink 35536

NORAD ID: 66261 Int'l Des: 2025-245 Owner: SPXS Country: US Constellation: starlink operational
LEOCIRCULAR

实时位置

正在加载3D地球...

关于 Starlink 35536

正在加载描述...

即将过境

Passes for default location (London). Set your location on the main map for personalized predictions.

高度历史

Loading altitude history...

两行轨道根数

1 66261U 25245AD 26106.28055438 .00010420 00000-0 36324-3 0 9997
2 66261 53.1580 109.1508 0001160 94.2842 265.8292 15.30217251 27017
Epoch: Apr 16, 2026 • Age: 31 hours

当前状态

高度 477.1 km
速度 7.63 km/s
星下点 -6.71°S, 117.46°W
发射日期 Oct 29, 2025
运行时间 0.4 years
类型 internet

技术详情

分类 Payload
质量 575.00 kg
干质量 530.00 kg
总质量 575.00 kg
长度 0.30 m
直径 4.10 m
跨度 29.00 m
形状 Box + pan
制造商 SPXS
平台类型 Starlink V2MO
阶段状态 In Orbit
所有者/国家 SPXS/US

Most Searched